HULIANWANG DIGUI-143

导读 | 豆包AI

HULIANWANG DIGUI-143是中国于2026年1月13日发射的低轨互联网卫星,隶属于中国星网星座体系,主要面向全球卫星互联网通信服务,填补地面网络覆盖盲区,支撑空天地一体化泛在网络建设。作为我国低轨卫星互联网组网的重要组成部分,该卫星将助力全球无缝接入、实现6G时代空海天通信融合,推动商业航天与卫星互联网产业规模化发展。

基本信息
目录编号:
67441
目录名称:
HULIANWANG DIGUI-143
国际标识:
2026-007G
轨道中心:
EARTH
卫星名称:
HULIANWANG DIGUI-143
卫星全名:
HULIANWANG DIGUI-143
卫星状态:
在轨 (已飞行81 天)
发射日期:
2026-01-13 UTC
国别 :
中国 (CN)
星等 :
--
轨道信息
数据来源 国际轨道数据 AOE轨道数据
星历时间 2026-04-03T17:39:27+0800
17小时前
查看轨道信息
2026-04-02T16:00:00+0800
1天前
查看轨道信息
半长轴 7527.429km 7527.435km
偏心率 0.0000284 0.0000218
轨道倾角 50.013° 50.012°
近地点辐角 74.931° 141.645°
升交点赤经 353.845° 357.681°
平近点角 285.159° 139.152°
近地点 1149.078km 1149.133km
远地点 1149.506km 1149.463km
周期 108.325分钟 108.325分钟
每日圈数 13.2933 13.293285
详细信息
使用方式:
暂无
2D轨道图
3D轨道图
轨道高度分析图
轨道倾角分析图
轨道综合分析图
查看轨道综合分析图